This demonstration page uses our WeatherBlox Daily Observations layout. Learn more.

Left ArrowRight Arrow

Hourly Observations for March 22, 2016

Temp ( °F °C ) Dew Point ( °F °C ) Humidity (%) Winds ( mph kmh ) Pressure ( in mb ) Visibility ( mi km ) Precip ( " mm )
12:54 am 00:54 Clear 59 15 34 1.1 39 39 SSW 17 28 29.62 1003 10 16 0.00 0.00
1:54 am 01:54 Clear 58 14.4 34 1.1 41 41 SW 18 30 29.61 1003 10 16 0.00 0.00
2:54 am 02:54 Clear 57 13.9 34 1.1 42 42 SW 17 28 29.60 1003 10 16 0.00 0.00
3:54 am 03:54 Clear 57 13.9 35 1.7 44 44 SW 18 30 29.58 1002 10 16 0.00 0.00
4:54 am 04:54 Clear 56 13.3 35 1.7 46 46 SW 17 28 29.57 1001 10 16 0.00 0.00
5:54 am 05:54 Clear 53 11.7 35 1.7 51 51 SSW 10 17 29.57 1001 10 16 0.00 0.00
6:54 am 06:54 Clear 52 11.1 35 1.7 53 53 S 10 17 29.57 1001 10 16 0.00 0.00
7:54 am 07:54 Sunny 51 10.6 35 1.7 54 54 SSW 9 15 29.58 1002 10 16 0.00 0.00
8:54 am 08:54 Sunny 53 11.7 36 2.2 52 52 SSW 12 19 29.56 1001 10 16 0.00 0.00
9:54 am 09:54 Sunny 55 12.8 36 2.2 49 49 SSW 9 15 29.55 1001 10 16 0.00 0.00
10:54 am 10:54 Sunny 57 13.9 37 2.8 47 47 SW 13 20 29.56 1001 10 16 0.00 0.00
11:54 am 11:54 Sunny 59 15 38 3.3 46 46 S 8 13 29.55 1001 N/A 0.00 0.00
12:54 pm 12:54 Sunny 61 16.1 38 3.3 43 43 undefined N/A 29.53 1000 10 16 0.00 0.00
1:54 pm 13:54 Sunny 62 16.7 38 3.3 41 41 undefined N/A 29.53 1000 10 16 0.00 0.00
2:54 pm 14:54 Sunny 65 18.3 40 4.4 40 40 SSE 9 15 29.48 998 10 16 0.00 0.00
3:54 pm 15:54 Sunny 65 18.3 39 3.9 39 39 ESE 5 7 29.49 999 10 16 0.00 0.00
4:54 pm 16:54 Sunny 66 18.9 39 3.9 37 37 SE 7 11 29.48 998 10 16 0.00 0.00
5:54 pm 17:54 Sunny 67 19.4 39 3.9 36 36 E 3 6 29.48 998 10 16 0.00 0.00
6:54 pm 18:54 Sunny 62 16.7 40 4.4 44 44 ENE 9 15 29.48 998 10 16 0.00 0.00
7:54 pm 19:54 Clear 58 14.4 40 4.4 51 51 NE 10 17 29.49 999 10 16 0.00 0.00
8:54 pm 20:54 Clear 58 14.4 39 3.9 50 50 NE 13 20 29.50 999 10 16 0.00 0.00
9:54 pm 21:54 Clear 58 14.4 40 4.4 51 51 ENE 14 22 29.51 999 10 16 0.00 0.00
10:54 pm 22:54 Clear 57 13.9 40 4.4 53 53 ENE 13 20 29.50 999 10 16 0.00 0.00
11:54 pm 23:54 Clear 57 13.9 40 4.4 53 53 E 23 37 29.49 999 10 16 0.00 0.00

Powered by AerisWeather